Previsão horária em Porto

Hoje, 13 Abril, Terça-feira

Tempo Temperatura Precipitação Vento Pressão Humidade
00:00 +15°C° 0.1 mm 1 m/s 759 mmHg 71%
01:00 +15°C° 0.1 mm 1 m/s 758 mmHg 72%
02:00 +14°C° 0.1 mm 2 m/s 758 mmHg 73%
03:00 +14°C° 0.1 mm 2 m/s 758 mmHg 74%
04:00 +14°C° 0.1 mm 2 m/s 758 mmHg 76%
05:00 +13°C° 0 mm 2 m/s 758 mmHg 83%
06:00 +14°C° 0.1 mm 2 m/s 758 mmHg 81%
07:00 +14°C° 0.1 mm 2 m/s 758 mmHg 79%
08:00 +14°C° 0.1 mm 2 m/s 758 mmHg 78%
09:00 +15°C° 0 mm 2 m/s 758 mmHg 74%
10:00 +17°C° 0 mm 2 m/s 758 mmHg 70%
11:00 +18°C° 0 mm 2 m/s 758 mmHg 67%
12:00 +18°C° 0 mm 2 m/s 758 mmHg 67%
13:00 +19°C° 0 mm 2 m/s 758 mmHg 67%
14:00 +19°C° 0 mm 2 m/s 757 mmHg 66%
15:00 +21°C° 0.1 mm 1 m/s 757 mmHg 68%
16:00 +20°C° 0.1 mm 1 m/s 757 mmHg 71%
17:00 +20°C° 0.1 mm 1 m/s 757 mmHg 73%
18:00 +19°C° 0.1 mm 1 m/s 757 mmHg 77%
19:00 +18°C° 0.1 mm 1 m/s 758 mmHg 81%
20:00 +16°C° 0.1 mm 1 m/s 758 mmHg 84%
21:00 +16°C° 0.1 mm 1 m/s 757 mmHg 85%
22:00 +16°C° 0.1 mm 1 m/s 757 mmHg 86%
23:00 +16°C° 0.1 mm 1 m/s 757 mmHg 86%

Amanhã, 14 Abril, Quarta-feira

Tempo Temperatura Precipitação Vento Pressão Humidade
00:00 +16°C° 0.1 mm 1 m/s 756 mmHg 86%
01:00 +15°C° 0.1 mm 1 m/s 756 mmHg 86%
02:00 +15°C° 0.1 mm 1 m/s 755 mmHg 86%
03:00 +15°C° 0 mm 1 m/s 755 mmHg 86%
04:00 +14°C° 0 mm 1 m/s 755 mmHg 86%
05:00 +14°C° 0 mm 2 m/s 755 mmHg 85%
06:00 +15°C° 0 mm 2 m/s 755 mmHg 79%
07:00 +17°C° 0 mm 2 m/s 755 mmHg 72%
08:00 +19°C° 0 mm 2 m/s 755 mmHg 65%
09:00 +20°C° 0 mm 2 m/s 755 mmHg 59%
10:00 +23°C° 0 mm 2 m/s 755 mmHg 53%
11:00 +25°C° 0 mm 2 m/s 754 mmHg 46%
12:00 +24°C° 0 mm 2 m/s 754 mmHg 49%
13:00 +24°C° 0 mm 2 m/s 753 mmHg 51%
14:00 +24°C° 0 mm 3 m/s 753 mmHg 53%
15:00 +21°C° 0 mm 3 m/s 753 mmHg 59%
16:00 +20°C° 0 mm 2 m/s 753 mmHg 64%
17:00 +19°C° 0 mm 2 m/s 753 mmHg 70%
18:00 +18°C° 0.1 mm 2 m/s 753 mmHg 75%
19:00 +17°C° 0.1 mm 2 m/s 754 mmHg 80%
20:00 +16°C° 0.1 mm 1 m/s 754 mmHg 85%
21:00 +16°C° 0 mm 1 m/s 754 mmHg 85%
22:00 +16°C° 0 mm 1 m/s 754 mmHg 85%
23:00 +16°C° 0 mm 1 m/s 753 mmHg 86%

Depois de amanhã, 15 Abril, Quinta-feira

Tempo Temperatura Precipitação Vento Pressão Humidade
00:00 +15°C° 0 mm 1 m/s 753 mmHg 84%
01:00 +15°C° 0 mm 1 m/s 753 mmHg 82%
02:00 +15°C° 0 mm 1 m/s 753 mmHg 81%
03:00 +15°C° 0 mm 1 m/s 753 mmHg 79%
04:00 +15°C° 0 mm 1 m/s 753 mmHg 77%
05:00 +14°C° 0 mm 1 m/s 753 mmHg 75%
06:00 +16°C° 0 mm 2 m/s 753 mmHg 69%
07:00 +17°C° 0 mm 2 m/s 754 mmHg 63%
08:00 +19°C° 0 mm 2 m/s 754 mmHg 56%
09:00 +20°C° 0 mm 2 m/s 754 mmHg 52%
10:00 +23°C° 0 mm 2 m/s 754 mmHg 48%
11:00 +24°C° 0 mm 2 m/s 754 mmHg 44%
12:00 +24°C° 0 mm 2 m/s 754 mmHg 45%
13:00 +24°C° 0 mm 3 m/s 753 mmHg 46%
14:00 +24°C° 0 mm 3 m/s 753 mmHg 48%
15:00 +22°C° 0 mm 3 m/s 753 mmHg 54%
16:00 +20°C° 0 mm 3 m/s 754 mmHg 60%
17:00 +19°C° 0 mm 3 m/s 754 mmHg 66%
18:00 +18°C° 0 mm 2 m/s 754 mmHg 69%
19:00 +17°C° 0 mm 2 m/s 754 mmHg 73%
20:00 +16°C° 0 mm 2 m/s 755 mmHg 77%
21:00 +16°C° 0 mm 2 m/s 755 mmHg 78%
22:00 +16°C° 0 mm 1 m/s 755 mmHg 80%
23:00 +16°C° 0 mm 1 m/s 755 mmHg 81%

16 Abril, Sexta-feira

Tempo Temperatura Precipitação Vento Pressão Humidade
00:00 +16°C° 0 mm 1 m/s 755 mmHg 81%
01:00 +15°C° 0 mm 1 m/s 755 mmHg 82%
02:00 +14°C° 0 mm 0 m/s 754 mmHg 82%
03:00 +15°C° 0 mm 1 m/s 754 mmHg 84%
04:00 +14°C° 0 mm 1 m/s 754 mmHg 86%
05:00 +14°C° 0 mm 1 m/s 754 mmHg 88%
06:00 +16°C° 0 mm 1 m/s 755 mmHg 79%
07:00 +19°C° 0 mm 1 m/s 755 mmHg 71%
08:00 +21°C° 0 mm 1 m/s 755 mmHg 62%
09:00 +22°C° 0 mm 1 m/s 755 mmHg 58%
10:00 +23°C° 0 mm 2 m/s 755 mmHg 54%
11:00 +24°C° 0 mm 3 m/s 755 mmHg 50%
12:00 +24°C° 0 mm 3 m/s 755 mmHg 50%
13:00 +24°C° 0 mm 3 m/s 754 mmHg 50%
14:00 +23°C° 0 mm 4 m/s 754 mmHg 50%
15:00 +22°C° 0 mm 3 m/s 754 mmHg 51%
16:00 +21°C° 0 mm 3 m/s 754 mmHg 53%
17:00 +20°C° 0 mm 3 m/s 754 mmHg 54%
18:00 +18°C° 0 mm 3 m/s 754 mmHg 59%
19:00 +17°C° 0 mm 2 m/s 755 mmHg 64%
20:00 +15°C° 0 mm 2 m/s 755 mmHg 69%
21:00 +14°C° 0 mm 3 m/s 755 mmHg 65%
22:00 +13°C° 0 mm 3 m/s 756 mmHg 61%
23:00 +13°C° 0 mm 4 m/s 756 mmHg 58%

17 Abril, Sábado

Tempo Temperatura Precipitação Vento Pressão Humidade
00:00 +12°C° 0 mm 5 m/s 756 mmHg 53%
01:00 +9°C° 0 mm 6 m/s 757 mmHg 48%
02:00 +8°C° 0 mm 7 m/s 757 mmHg 44%
03:00 +8°C° 0 mm 6 m/s 757 mmHg 46%
04:00 +7°C° 0 mm 6 m/s 758 mmHg 48%
05:00 +7°C° 0 mm 5 m/s 758 mmHg 51%
06:00 +8°C° 0 mm 5 m/s 758 mmHg 46%
07:00 +11°C° 0 mm 4 m/s 759 mmHg 40%
08:00 +13°C° 0 mm 4 m/s 759 mmHg 35%
09:00 +16°C° 0 mm 3 m/s 759 mmHg 32%
10:00 +18°C° 0 mm 2 m/s 759 mmHg 29%
11:00 +20°C° 0 mm 2 m/s 759 mmHg 25%
12:00 +20°C° 0 mm 3 m/s 759 mmHg 26%
13:00 +21°C° 0 mm 3 m/s 759 mmHg 27%
14:00 +21°C° 0 mm 4 m/s 759 mmHg 29%
15:00 +20°C° 0 mm 4 m/s 759 mmHg 36%
16:00 +18°C° 0 mm 4 m/s 759 mmHg 43%
17:00 +16°C° 0 mm 5 m/s 759 mmHg 51%
18:00 +15°C° 0 mm 4 m/s 760 mmHg 54%
19:00 +13°C° 0 mm 3 m/s 760 mmHg 58%
20:00 +13°C° 0 mm 2 m/s 760 mmHg 61%
21:00 +13°C° 0 mm 2 m/s 760 mmHg 63%
22:00 +12°C° 0 mm 2 m/s 760 mmHg 64%
23:00 +12°C° 0 mm 1 m/s 760 mmHg 66%

18 Abril, Domingo

Tempo Temperatura Precipitação Vento Pressão Humidade
00:00 +12°C° 0 mm 1 m/s 760 mmHg 65%
01:00 +11°C° 0 mm 1 m/s 760 mmHg 65%
02:00 +11°C° 0 mm 1 m/s 759 mmHg 65%
03:00 +11°C° 0 mm 1 m/s 759 mmHg 65%
04:00 +11°C° 0 mm 1 m/s 759 mmHg 65%
05:00 +11°C° 0 mm 1 m/s 759 mmHg 64%
06:00 +12°C° 0 mm 0 m/s 759 mmHg 57%
07:00 +14°C° 0 mm 0 m/s 760 mmHg 50%
08:00 +17°C° 0 mm 0 m/s 760 mmHg 43%
09:00 +20°C° 0 mm 1 m/s 760 mmHg 40%
10:00 +21°C° 0 mm 1 m/s 759 mmHg 37%
11:00 +23°C° 0 mm 2 m/s 759 mmHg 34%
12:00 +23°C° 0 mm 2 m/s 759 mmHg 34%
13:00 +22°C° 0 mm 3 m/s 759 mmHg 35%
14:00 +22°C° 0 mm 3 m/s 758 mmHg 35%
15:00 +21°C° 0 mm 3 m/s 758 mmHg 40%
16:00 +19°C° 0 mm 3 m/s 758 mmHg 45%
17:00 +18°C° 0 mm 3 m/s 758 mmHg 50%
18:00 +17°C° 0 mm 2 m/s 759 mmHg 56%
19:00 +15°C° 0 mm 2 m/s 759 mmHg 61%
20:00 +14°C° 0 mm 2 m/s 759 mmHg 66%
21:00 +14°C° 0 mm 1 m/s 759 mmHg 65%
22:00 +14°C° 0 mm 1 m/s 759 mmHg 63%
23:00 +14°C° 0 mm 1 m/s 758 mmHg 62%
Mostrar mais

Necessitamos do seu Consentimento

A Meteoprog e os seus Fornecedores de Serviços podem armazenar e aceder a dados pessoais como cookies, identificadores do dispositivo ou outras tecnologias semelhantes existentes no seu dispositivo e processar estes dados para personalizar conteúdos e anúncios, assim como funcionalidades nas redes sociais e análise de tráfego.

  • Armazenar e/ou aceder a informações no seu dispositivo

    Os cookies, identificadores do dispositivo ou outras informações podem ser armazenados ou acedidos no seu dispositivo, para os fins acima indicados.

  • Anúncios e conteúdos personalizados, medição de anúncios e conteúdos, dados sobre o público-alvo e desenvolvimento de produtos

    Os anúncios e os conteúdos podem ser personalizados com base num perfil. Podem ser adicionados dados adicionais para uma maior personalização dos anúncios e dos conteúdos. A eficácia dos anúncios e dos conteúdos pode ser medida. Podem ser obtidas informações sobre o público que visualizou os anúncios e os conteúdos. Estes dados podem ser usados para desenvolver ou melhorar sistemas, softwares ou a experiência do utilizador.

Ao clicar em "Eu concordo”, permitirá o uso de cookies, identificadores do dispositivo e web beacons mencionados ou outras tecnologias semelhantes. As configurações do navegador do seu dispositivo podem ser alteradas.

Para certos fins, podem ser invocados interesses legítimos ao invés de consentimento. Pode ler mais informação sobre este assunto na nossa Política de Privacidade e Cookies.